Theta_e
347 358 363 363 362 361 361 362 362 363 363 363 363 362 361 360 360 361 361 360 360 358 354 351 349 347 346 348 351 352 353 353 353 353 352 353 353 353 355 352 351 349 350
350 359 363 362 362 362 361 361 361 361 362 362 362 361 360 361 361 361 361 360 358 354 350 348 346 343 342 344 348 351 352 353 354 352 352 352 352 352 350 351 352 349 349
352 358 360 362 362 361 360 360 360 360 360 361 360 360 360 360 360 360 359 358 354 350 348 346 344 341 340 340 340 343 347 350 352 352 351 346 348 351 348 348 350 352 350
354 356 357 361 361 361 359 359 359 359 359 360 360 359 360 359 359 357 357 355 352 349 346 344 343 341 340 339 338 341 343 343 343 342 338 342 346 348 348 345 347 350 351
353 356 357 362 360 360 359 358 358 359 359 359 359 359 359 359 358 357 356 355 351 348 345 344 343 342 340 339 341 342 343 343 340 337 334 335 334 341 349 348 346 348 349
353 355 360 361 360 360 359 358 358 359 359 359 359 359 359 358 357 356 355 354 352 348 346 345 343 342 341 339 341 342 343 341 339 331 332 333 340 339 350 350 348 348 347
351 353 358 360 360 360 359 358 358 358 358 358 359 358 358 357 356 356 355 353 351 349 346 345 344 344 344 342 341 341 342 340 334 333 334 335 338 342 353 352 351 349 347
350 353 357 360 360 359 359 358 357 357 357 357 358 358 357 356 356 355 354 353 352 351 350 347 347 346 345 343 342 342 342 339 337 334 334 333 339 345 351 354 355 351 348
351 354 355 356 358 359 358 357 357 357 356 356 356 356 356 356 356 355 355 354 354 352 351 350 349 347 345 344 344 344 343 340 336 336 334 334 335 340 349 355 354 351 349
350 352 352 354 356 353 354 358 358 357 356 356 356 356 355 355 356 355 353 354 354 353 351 350 350 348 346 345 345 345 343 341 335 334 333 332 338 341 348 354 354 352 350
346 350 351 352 353 354 352 355 357 358 357 357 356 356 353 350 352 352 352 352 354 354 352 351 349 349 348 347 347 346 345 338 336 334 333 336 340 341 349 354 356 354 352
340 347 350 350 351 351 354 353 352 352 353 353 353 352 349 347 347 349 351 353 354 354 353 352 350 350 349 343 340 342 339 338 337 336 335 339 343 343 346 354 357 355 354
340 345 348 349 350 350 352 352 353 353 353 351 351 350 348 347 346 348 346 348 348 350 347 349 348 347 344 342 341 339 338 336 334 335 336 341 343 344 347 352 355 356 354
339 342 347 348 347 348 349 349 350 351 352 351 351 351 347 345 342 342 342 342 342 343 342 343 343 344 342 343 341 340 338 336 334 334 335 341 345 346 349 352 357 356 354
337 340 345 347 346 347 348 349 348 348 349 350 350 349 348 345 343 341 341 340 338 340 340 341 342 342 341 341 341 339 338 337 336 335 336 340 345 347 349 352 356 355 354
337 339 342 345 346 346 348 347 346 348 349 348 348 349 348 346 343 340 339 338 338 339 340 341 341 341 340 340 340 340 339 338 337 337 336 336 342 345 350 353 357 355 353
332 338 339 341 344 344 346 345 345 346 347 344 343 343 346 344 341 340 337 336 335 338 339 341 341 341 340 340 339 340 339 339 338 338 338 337 338 343 350 353 355 356 355
327 335 337 341 340 341 343 343 343 342 343 344 344 342 342 344 342 338 336 335 337 338 340 340 340 340 339 339 338 339 339 339 339 339 339 339 339 339 345 351 351 353 354
321 330 334 338 338 339 339 342 341 340 340 341 342 341 341 342 343 341 339 339 340 339 339 339 338 336 333 333 333 334 334 333 335 336 338 340 341 340 340 344 349 350 351
313 324 332 336 338 337 337 339 340 340 340 340 341 341 342 342 343 343 343 343 343 342 341 339 338 336 334 333 332 333 334 335 336 336 338 340 343 341 341 341 342 347 348
309 316 327 331 333 337 336 336 336 338 339 338 341 342 343 343 344 343 343 342 342 341 340 340 338 336 334 334 333 332 335 337 336 336 339 341 341 343 341 341 341 343 345
311 313 319 328 329 336 339 332 334 333 334 336 337 339 341 343 345 344 341 340 342 341 340 340 337 335 333 333 332 331 324 330 334 338 340 341 342 343 342 342 342 343 344
309 313 316 324 330 333 332 324 321 323 326 331 334 336 339 340 339 340 338 335 341 341 339 339 337 335 334 334 333 331 324 320 330 337 340 341 342 342 342 343 344 345 346
307 311 315 317 327 332 328 326 322 323 321 325 328 328 336 339 338 336 334 332 336 339 338 338 337 336 334 332 332 335 335 333 327 326 337 339 339 339 342 342 343 345 346
305 309 315 317 321 325 326 328 321 318 319 318 320 321 322 328 335 337 337 336 338 339 340 340 338 335 335 334 332 333 332 334 334 331 326 332 335 338 340 341 342 343 345
303 308 313 316 318 319 321 320 320 319 318 317 317 318 319 320 322 325 328 335 339 338 336 337 337 335 335 335 335 333 333 331 329 330 330 331 332 336 338 340 341 342 344
Wind_Speed
5 10 18 18 17 15 14 14 18 18 20 20 20 21 20 19 17 16 16 15 14 14 13 12 11 10 10 11 11 11 11 11 11 11 9 7 5 7 9 8 8 6 6
12 11 17 18 19 16 17 16 15 18 19 19 20 20 20 18 16 15 15 15 15 14 12 12 11 10 11 11 12 12 11 10 9 10 9 6 7 6 5 6 7 7 5
14 10 12 16 17 17 17 17 16 16 18 18 19 19 18 17 16 15 14 13 14 14 13 11 11 10 10 10 11 11 10 10 9 8 8 4 2 4 4 5 7 7 6
13 10 9 16 18 18 16 17 17 18 18 18 18 17 16 16 15 15 14 13 14 13 13 12 11 9 9 9 9 9 8 8 7 6 3 2 2 4 4 5 7 8 8
10 10 11 14 16 19 18 17 18 18 19 19 18 17 16 15 14 14 13 13 13 13 12 11 10 9 8 7 6 6 5 5 5 4 2 1 2 5 7 6 7 9 8
9 8 12 15 15 17 19 18 18 19 19 20 20 18 17 16 13 12 12 11 11 11 11 10 9 8 6 5 4 4 4 2 3 1 1 3 4 8 9 9 8 7 8
10 7 11 13 14 16 17 17 17 18 19 18 18 17 16 15 13 11 11 11 10 11 10 10 9 7 6 5 4 4 3 3 2 1 2 2 2 9 10 9 8 6 6
10 7 10 12 12 13 15 15 15 16 16 19 18 17 15 14 13 13 12 11 10 10 10 9 8 7 6 5 3 2 2 2 3 1 2 1 3 5 9 8 9 9 7
11 11 11 11 9 12 13 15 14 14 15 16 17 18 18 16 13 12 12 11 11 9 8 8 7 6 6 4 3 3 3 3 1 1 2 1 3 3 10 9 10 9 8
11 11 11 13 10 7 7 13 14 14 14 14 15 16 17 18 16 14 12 11 11 10 10 8 7 6 5 4 4 4 5 4 1 2 2 2 6 6 8 11 11 10 10
7 11 11 13 13 10 6 8 11 14 13 12 11 11 8 4 7 11 10 12 11 10 9 8 6 6 5 5 5 6 7 1 3 2 3 7 7 6 8 12 13 13 12
10 14 12 12 14 13 9 7 6 6 4 4 5 5 3 2 3 4 7 11 10 9 8 7 6 7 5 3 2 5 2 4 3 3 3 8 8 6 10 12 15 15 14
10 10 12 11 11 14 9 8 5 4 5 3 5 5 4 3 2 2 1 2 2 5 2 2 3 2 4 3 3 3 4 4 3 3 5 9 8 8 11 12 15 15 13
11 11 11 10 9 10 6 7 7 7 6 7 8 9 7 4 4 3 2 3 3 1 2 2 2 3 4 4 5 5 5 4 3 3 5 10 10 9 9 11 13 14 12
11 12 15 13 13 13 10 8 8 9 9 10 9 9 6 5 5 4 4 3 3 2 2 2 3 3 4 4 5 6 6 6 6 4 3 11 11 10 9 9 13 13 12
8 12 13 15 13 12 12 12 10 9 10 7 2 3 4 3 4 5 4 5 3 3 2 3 3 3 4 3 5 5 6 5 6 6 5 5 11 11 9 11 13 13 12
9 8 14 14 13 13 13 9 8 7 7 8 8 2 4 5 4 3 3 2 3 3 3 3 3 2 3 2 6 5 4 6 6 7 6 5 6 11 11 13 13 13 13
5 11 11 12 14 14 14 11 8 7 7 6 6 10 10 9 8 5 4 4 4 3 3 3 3 2 3 3 4 5 4 4 6 7 6 5 5 6 8 14 13 14 14
9 7 9 12 15 17 13 9 9 9 9 7 7 8 13 15 10 8 6 6 3 4 3 3 2 2 2 3 4 5 5 5 6 6 8 8 6 6 5 10 14 14 14
10 8 7 8 11 10 5 4 3 4 6 6 8 9 10 9 10 8 6 4 6 4 4 2 2 1 3 3 3 5 5 6 6 7 7 7 5 5 7 7 6 7 13
8 8 11 9 9 9 5 5 4 7 3 3 6 6 7 6 12 6 2 8 9 6 6 4 3 3 2 2 2 3 4 6 6 4 4 5 4 5 7 7 5 4 5
5 9 6 7 6 9 8 3 3 4 3 2 3 4 5 5 7 11 8 2 6 3 5 6 5 3 1 2 0 1 5 4 3 2 1 3 4 4 5 8 7 7 6
8 9 10 12 12 8 7 5 4 4 3 3 3 4 4 4 3 1 4 7 12 5 6 5 7 8 3 1 4 2 3 4 3 2 2 1 3 3 3 6 7 7 7
12 7 8 7 9 11 11 9 8 6 6 4 4 3 4 6 6 6 7 8 10 5 5 6 4 3 6 3 1 4 4 3 3 5 3 3 2 5 5 6 4 7 7
10 9 11 10 9 7 12 14 8 5 4 3 3 6 4 4 6 6 6 7 5 4 5 5 4 7 5 5 4 3 3 3 3 5 7 3 2 4 5 6 4 6 7
9 9 9 13 13 11 11 8 10 10 7 5 5 4 3 2 3 5 5 5 5 5 5 4 4 5 5 3 2 4 5 4 3 3 4 4 4 4 3 3 4 6 5
Wind_Direction
195 158 152 150 146 140 132 121 120 119 121 123 127 125 127 128 132 133 134 131 133 133 129 125 124 126 124 120 119 115 112 114 116 117 122 113 90 124 156 117 117 110 102
144 156 155 150 146 144 137 129 122 121 122 126 128 128 128 132 134 134 136 139 140 139 137 136 138 141 139 137 134 129 130 129 128 128 124 112 109 109 119 133 130 119 124
145 150 153 150 144 144 140 135 131 126 125 128 126 129 133 136 138 140 142 142 143 143 146 147 148 149 143 143 142 140 142 138 135 128 119 116 105 138 147 157 142 141 141
143 146 152 153 145 144 145 140 139 136 133 131 131 135 137 139 144 147 145 148 149 152 153 154 153 150 149 150 145 138 141 133 127 119 106 144 217 188 182 180 172 159 160
144 146 155 157 150 148 147 147 146 144 142 139 139 141 143 146 149 151 151 151 154 156 157 156 155 155 154 146 136 127 119 118 124 119 156 184 261 233 202 193 195 173 166
144 147 160 160 158 152 149 150 151 149 148 146 147 150 149 149 153 156 153 156 159 161 162 160 160 162 155 143 125 115 113 117 105 93 336 302 260 214 201 204 205 200 177
143 145 161 163 163 155 152 151 153 154 151 150 149 149 149 151 156 159 158 164 168 169 170 170 168 167 169 162 161 144 141 156 138 173 290 301 247 202 204 208 209 204 190
136 133 160 164 169 161 155 156 158 158 158 155 154 153 153 157 162 165 169 175 179 181 178 180 181 181 184 186 193 184 199 190 139 195 262 291 345 220 214 212 214 200 207
139 147 167 170 173 167 162 162 162 165 165 164 162 161 160 164 172 175 178 184 188 189 190 191 193 198 199 204 231 255 274 289 179 252 283 299 304 278 230 217 216 216 209
148 157 171 177 176 157 161 170 168 170 175 174 173 174 171 170 174 184 188 192 196 195 196 199 202 212 231 234 255 267 275 293 268 256 263 264 283 286 236 221 213 217 215
153 165 170 176 179 172 154 176 179 180 182 184 181 185 181 176 180 187 194 201 205 207 206 204 205 227 244 256 264 277 287 274 267 251 247 250 252 251 235 222 215 212 215
181 176 174 178 180 179 178 173 164 175 180 186 179 182 173 217 187 192 210 211 220 217 217 210 216 228 239 254 277 296 295 286 278 262 253 259 251 238 241 234 225 216 212
178 181 179 175 180 178 177 171 175 171 170 190 187 182 184 168 219 238 227 246 230 239 219 229 240 237 241 243 267 265 265 273 267 259 262 265 259 248 245 248 229 217 212
178 183 173 174 172 184 175 179 182 185 186 187 207 207 190 191 190 198 216 254 255 221 230 203 244 247 251 255 255 271 268 260 265 265 262 266 258 258 257 248 220 213 213
175 190 177 177 180 182 182 183 190 196 196 197 194 203 198 194 204 183 201 200 239 246 237 221 225 255 248 248 252 247 255 262 257 260 269 282 280 280 283 243 214 215 216
187 191 173 189 187 185 193 189 190 191 197 195 187 182 210 236 211 202 223 206 208 204 234 238 230 240 260 259 267 242 252 251 260 255 258 264 267 266 255 229 216 213 220
205 178 180 183 185 190 193 190 197 198 187 180 142 206 240 203 217 252 209 239 246 191 227 245 252 237 277 252 270 265 251 259 259 264 251 246 258 247 241 229 222 216 215
280 190 182 184 188 194 197 190 192 182 179 195 181 174 200 216 196 193 210 230 214 214 190 208 223 243 236 267 277 274 263 252 254 255 257 238 229 243 232 229 222 226 219
223 234 201 190 189 196 202 195 193 181 178 181 176 206 219 184 187 196 202 211 152 211 203 214 219 211 225 256 261 275 267 259 251 258 255 252 229 226 235 225 222 222 226
239 209 252 207 201 195 182 152 149 170 204 178 193 202 211 200 177 186 191 177 189 216 161 183 181 220 243 254 270 269 263 260 249 243 248 256 246 231 235 237 230 226 230
239 220 209 204 192 164 156 158 157 201 214 246 224 199 206 190 171 180 280 220 196 183 150 183 140 185 261 233 313 297 273 257 256 253 248 260 263 250 238 233 224 217 226
232 229 222 210 205 194 185 151 146 147 180 179 169 210 201 192 179 161 161 233 334 250 200 157 155 136 247 201 226 308 319 331 342 351 257 290 288 257 240 239 220 216 223
247 226 212 205 196 198 165 122 99 96 68 112 195 225 231 218 196 247 168 204 228 216 201 191 150 147 203 232 189 208 312 287 320 328 330 337 318 292 267 254 244 224 227
247 218 212 209 216 193 169 170 166 176 158 192 171 162 187 203 208 196 209 214 217 216 213 191 166 152 126 236 185 198 260 269 335 328 320 333 276 304 290 264 250 264 233
251 231 217 207 192 207 197 186 168 155 136 137 126 158 184 197 199 202 205 207 195 188 202 198 152 140 183 175 184 120 226 257 197 233 290 297 354 261 245 258 257 252 236
262 235 215 198 199 183 186 180 176 165 157 152 150 159 195 249 267 258 234 213 207 200 209 200 192 158 180 195 169 201 198 207 166 214 246 284 295 305 308 261 258 253 250